When you browse on this site, cookies collect data to enhance your experience and personalize the content and advertising you see.
Visit our Privacy Policy to learn more. By continuing to use the site, you agree to this use of cookies and data.
  • In United Kingdom
  • List of Countries
  • For 7 days
  • Water Temperature
  • Weather Map
  • Weather Widgets
  • user-avatar
    Login

    Hourly Weather Etchmiadzin

    Today, 17 September, Tuesday

    Time Temperature Precipitation Wind Pressure Humidity
    00:00 +22°C° 0 mm 1 mps 686 mmHg 53%
    01:00 +22°C° 0 mm 1 mps 686 mmHg 53%
    02:00 +21°C° 0 mm 1 mps 686 mmHg 54%
    03:00 +20°C° 0 mm 1 mps 686 mmHg 53%
    04:00 +20°C° 0 mm 1 mps 686 mmHg 53%
    05:00 +20°C° 0 mm 1 mps 686 mmHg 54%
    06:00 +20°C° 0 mm 1 mps 686 mmHg 54%
    07:00 +22°C° 0 mm 1 mps 686 mmHg 48%
    08:00 +24°C° 0 mm 1 mps 686 mmHg 42%
    09:00 +27°C° 0 mm 1 mps 687 mmHg 35%
    10:00 +28°C° 0 mm 2 mps 687 mmHg 32%
    11:00 +29°C° 0 mm 2 mps 687 mmHg 29%
    12:00 +30°C° 0 mm 2 mps 686 mmHg 25%
    13:00 +31°C° 0 mm 3 mps 686 mmHg 24%
    14:00 +31°C° 0 mm 3 mps 685 mmHg 22%
    15:00 +33°C° 0 mm 4 mps 685 mmHg 20%
    16:00 +31°C° 0 mm 3 mps 685 mmHg 23%
    17:00 +29°C° 0 mm 2 mps 685 mmHg 25%
    18:00 +28°C° 0 mm 2 mps 685 mmHg 28%
    19:00 +27°C° 0.1 mm 2 mps 686 mmHg 31%
    20:00 +25°C° 0.1 mm 3 mps 686 mmHg 35%
    21:00 +23°C° 0.1 mm 4 mps 687 mmHg 38%
    22:00 +22°C° 0.1 mm 3 mps 687 mmHg 42%
    23:00 +21°C° 0.1 mm 2 mps 687 mmHg 45%

    Tomorrow, 18 September, Wednesday

    Time Temperature Precipitation Wind Pressure Humidity
    00:00 +20°C° 0.1 mm 2 mps 687 mmHg 48%
    01:00 +20°C° 0 mm 2 mps 687 mmHg 49%
    02:00 +19°C° 0 mm 2 mps 687 mmHg 49%
    03:00 +19°C° 0 mm 2 mps 687 mmHg 49%
    04:00 +19°C° 0 mm 2 mps 687 mmHg 50%
    05:00 +18°C° 0 mm 2 mps 687 mmHg 51%
    06:00 +18°C° 0 mm 2 mps 687 mmHg 52%
    07:00 +20°C° 0 mm 2 mps 688 mmHg 47%
    08:00 +23°C° 0 mm 2 mps 689 mmHg 42%
    09:00 +25°C° 0 mm 1 mps 689 mmHg 36%
    10:00 +26°C° 0 mm 1 mps 689 mmHg 33%
    11:00 +28°C° 0 mm 1 mps 689 mmHg 30%
    12:00 +29°C° 0 mm 1 mps 689 mmHg 27%
    13:00 +29°C° 0 mm 1 mps 689 mmHg 25%
    14:00 +30°C° 0 mm 1 mps 689 mmHg 24%
    15:00 +31°C° 0 mm 1 mps 689 mmHg 22%
    16:00 +29°C° 0 mm 1 mps 688 mmHg 25%
    17:00 +28°C° 0 mm 1 mps 688 mmHg 28%
    18:00 +26°C° 0 mm 1 mps 688 mmHg 32%
    19:00 +25°C° 0 mm 1 mps 688 mmHg 32%
    20:00 +24°C° 0 mm 2 mps 688 mmHg 32%
    21:00 +24°C° 0 mm 2 mps 689 mmHg 32%
    22:00 +23°C° 0 mm 2 mps 689 mmHg 34%
    23:00 +22°C° 0 mm 1 mps 689 mmHg 35%

    Day after tomorrow, 19 September, Thursday

    Time Temperature Precipitation Wind Pressure Humidity
    00:00 +22°C° 0 mm 1 mps 688 mmHg 36%
    01:00 +21°C° 0 mm 1 mps 688 mmHg 37%
    02:00 +21°C° 0 mm 1 mps 688 mmHg 38%
    03:00 +20°C° 0 mm 1 mps 688 mmHg 39%
    04:00 +20°C° 0 mm 1 mps 688 mmHg 40%
    05:00 +20°C° 0 mm 1 mps 688 mmHg 42%
    06:00 +19°C° 0 mm 1 mps 688 mmHg 43%
    07:00 +22°C° 0 mm 1 mps 688 mmHg 38%
    08:00 +24°C° 0 mm 1 mps 688 mmHg 33%
    09:00 +27°C° 0 mm 1 mps 689 mmHg 28%
    10:00 +28°C° 0 mm 1 mps 689 mmHg 25%
    11:00 +30°C° 0 mm 1 mps 689 mmHg 23%
    12:00 +31°C° 0 mm 1 mps 689 mmHg 21%
    13:00 +32°C° 0 mm 1 mps 689 mmHg 19%
    14:00 +32°C° 0 mm 1 mps 689 mmHg 18%
    15:00 +33°C° 0 mm 1 mps 688 mmHg 16%
    16:00 +31°C° 0 mm 1 mps 688 mmHg 19%
    17:00 +29°C° 0 mm 1 mps 688 mmHg 21%
    18:00 +27°C° 0 mm 1 mps 687 mmHg 24%
    19:00 +26°C° 0 mm 2 mps 687 mmHg 25%
    20:00 +25°C° 0 mm 2 mps 688 mmHg 26%
    21:00 +25°C° 0 mm 3 mps 688 mmHg 27%
    22:00 +24°C° 0 mm 2 mps 688 mmHg 30%
    23:00 +23°C° 0 mm 2 mps 687 mmHg 32%

    20 September, Friday

    Time Temperature Precipitation Wind Pressure Humidity
    00:00 +21°C° 0 mm 2 mps 687 mmHg 35%
    01:00 +20°C° 0 mm 2 mps 687 mmHg 37%
    02:00 +20°C° 0 mm 2 mps 687 mmHg 39%
    03:00 +20°C° 0 mm 1 mps 687 mmHg 42%
    04:00 +20°C° 0 mm 1 mps 686 mmHg 43%
    05:00 +19°C° 0 mm 1 mps 686 mmHg 45%
    06:00 +19°C° 0 mm 1 mps 686 mmHg 46%
    07:00 +21°C° 0 mm 1 mps 686 mmHg 40%
    08:00 +24°C° 0 mm 1 mps 687 mmHg 34%
    09:00 +27°C° 0 mm 1 mps 687 mmHg 28%
    10:00 +28°C° 0 mm 2 mps 687 mmHg 25%
    11:00 +30°C° 0 mm 2 mps 686 mmHg 22%
    12:00 +31°C° 0 mm 3 mps 686 mmHg 19%
    13:00 +33°C° 0 mm 3 mps 686 mmHg 18%
    14:00 +34°C° 0 mm 3 mps 685 mmHg 16%
    15:00 +34°C° 0 mm 3 mps 685 mmHg 15%
    16:00 +33°C° 0 mm 3 mps 684 mmHg 17%
    17:00 +30°C° 0 mm 2 mps 684 mmHg 19%
    18:00 +29°C° 0 mm 2 mps 683 mmHg 21%
    19:00 +28°C° 0 mm 2 mps 684 mmHg 22%
    20:00 +28°C° 0 mm 2 mps 684 mmHg 23%
    21:00 +27°C° 0 mm 2 mps 684 mmHg 23%
    22:00 +26°C° 0 mm 2 mps 684 mmHg 28%
    23:00 +25°C° 0 mm 2 mps 683 mmHg 33%

    21 September, Saturday

    Time Temperature Precipitation Wind Pressure Humidity
    00:00 +22°C° 0 mm 3 mps 683 mmHg 38%
    01:00 +22°C° 0 mm 3 mps 683 mmHg 42%
    02:00 +21°C° 0 mm 3 mps 683 mmHg 46%
    03:00 +20°C° 0 mm 4 mps 683 mmHg 51%
    04:00 +19°C° 0 mm 4 mps 682 mmHg 53%
    05:00 +19°C° 0 mm 4 mps 682 mmHg 55%
    06:00 +18°C° 0 mm 3 mps 682 mmHg 57%
    07:00 +20°C° 0 mm 3 mps 683 mmHg 51%
    08:00 +22°C° 0 mm 3 mps 683 mmHg 45%
    09:00 +25°C° 0 mm 3 mps 683 mmHg 39%
    10:00 +26°C° 0 mm 3 mps 683 mmHg 35%
    11:00 +27°C° 0 mm 4 mps 683 mmHg 30%
    12:00 +29°C° 0 mm 4 mps 683 mmHg 26%
    13:00 +29°C° 0 mm 4 mps 682 mmHg 24%
    14:00 +30°C° 0 mm 4 mps 682 mmHg 21%
    15:00 +32°C° 0 mm 4 mps 682 mmHg 19%
    16:00 +29°C° 0 mm 4 mps 682 mmHg 23%
    17:00 +27°C° 0 mm 5 mps 682 mmHg 27%
    18:00 +25°C° 0 mm 5 mps 682 mmHg 31%
    19:00 +22°C° 0 mm 5 mps 683 mmHg 34%
    20:00 +20°C° 0 mm 5 mps 684 mmHg 38%
    21:00 +19°C° 0 mm 6 mps 684 mmHg 42%
    22:00 +17°C° 0 mm 5 mps 685 mmHg 42%
    23:00 +16°C° 0 mm 5 mps 685 mmHg 41%

    22 September, Sunday

    Time Temperature Precipitation Wind Pressure Humidity
    00:00 +15°C° 0 mm 4 mps 685 mmHg 41%
    01:00 +15°C° 0 mm 5 mps 685 mmHg 42%
    02:00 +14°C° 0 mm 5 mps 686 mmHg 43%
    03:00 +13°C° 0 mm 5 mps 686 mmHg 44%
    04:00 +13°C° 0 mm 5 mps 686 mmHg 43%
    05:00 +12°C° 0 mm 5 mps 686 mmHg 43%
    06:00 +12°C° 0 mm 4 mps 687 mmHg 42%
    07:00 +13°C° 0 mm 4 mps 687 mmHg 37%
    08:00 +15°C° 0 mm 4 mps 688 mmHg 32%
    09:00 +17°C° 0 mm 4 mps 689 mmHg 27%
    10:00 +19°C° 0 mm 4 mps 689 mmHg 25%
    11:00 +20°C° 0 mm 4 mps 689 mmHg 23%
    12:00 +21°C° 0 mm 4 mps 689 mmHg 21%
    13:00 +22°C° 0 mm 4 mps 689 mmHg 20%
    14:00 +22°C° 0 mm 3 mps 689 mmHg 18%
    15:00 +24°C° 0 mm 3 mps 689 mmHg 17%
    16:00 +21°C° 0 mm 3 mps 689 mmHg 19%
    17:00 +20°C° 0 mm 2 mps 689 mmHg 22%
    18:00 +18°C° 0 mm 2 mps 689 mmHg 25%
    19:00 +17°C° 0 mm 3 mps 689 mmHg 30%
    20:00 +15°C° 0 mm 4 mps 690 mmHg 35%
    21:00 +14°C° 0 mm 4 mps 690 mmHg 41%
    22:00 +13°C° 0 mm 4 mps 690 mmHg 43%
    23:00 +12°C° 0 mm 3 mps 690 mmHg 44%
    Show more